Погода Екатерино-Никольское

Погода Екатерино-Никольское : погода сейчас, прогноз погоды и архив. Всё, что Вы хотите узнать о погоде Екатерино-Никольское!

Хотите узнать прогноз погоды Екатерино-Никольское? Тогда Вам сюда: Погода Екатерино-Никольское

Поиск расширенной информации на нашем сайте:

Другие новости

Новости СМИ2

Главная страница сайта

Новости сайта

03.07.2017

Напоминаем, что на нашем специализированном сайте Метеоцентр.Азия вы можете получить высокодетализированные автоматические прогнозы погоды по пунктам России, СНГ и мира в авиационном формате (включающие направление и скорость ветра, видимость, явления погоды, количество и форму облачности, нижнюю и верхнюю границу облачности).


Погода Екатерино-Никольское - сегодня

Время (UTC), дата Ветер
(°,м/с) 
Видим.   Явления Облачность Т
(°С)
Тd
(°С)
f(%) Тe
(°С)
Pmin
(гПа)
dP
(гПа)
Po
(мм)
O2
(г/м3)
Тmin Tmax R s Состояние
почвы
15 20.11.17 220 (ЮЗ) 20000 м    8/0 верхняя 
[Ci fib]
-14.4 -23 48 -18  1020.5  0.6  758  324           
18 20.11.17 280 (З) 20000 м    10/0 средняя, верхняя 
[Ac As|Ci fib]
-13.6 -22.8 46 -14  1020.2  0.6  758  323           
21 20.11.17 190 (Ю) 20000 м    10/0 средняя, верхняя 
[Ac As|Ci fib]
-13.7 -19.1 64 -17  1019.3  -0.8  757  323  -16      <0.5  сухой снег
50-90% 
00 21.11.17 200 (Ю) 20000 м    10/6 600 м средняя, верхняя 
[Sc|Ac trans|Ci fib]
-11.7 -17.4 63 -16  1018.9  -0.4  757  320           
03 21.11.17 200 (Ю) 20000 м    10/8 600 м средняя 
[Sc|Ac trans]
-7.9 -15.7 53 -11  1017.2  -1.5  756  315           
06 21.11.17 180 (Ю) 20000 м    10/8 600 м средняя 
[Sc|Ac trans]
-7.5 -15.9 51 -10  1014.7  -2.5  754  314           
09 21.11.17 070 (В) 20000 м    10/8 600 м средняя 
[Sc|Ac As]
-8.5 -14.1 64 -10  1013.4  -1.4  753  314    -6.9       
12 21.11.17 040 (СВ) 20000 м    10/8 600 м средняя 
[Sc|Ac As]
-9.5 -13.6 72 -12  1011.5  -1.9  752  315           
15 21.11.17 050 (СВ) 20000 м    10/0 средняя 
[Ac As]
-9.6 -12.8 77 -14  1009  -2.4  750  314           
18 21.11.17 040 (СВ) 4000 м  слаб. снег  10/10 600 м 
[Ns]
-9.7 -11.1 89 -13  1006.5  -2.5  748  313           
21 21.11.17 030 (СВ) 4000 м  слаб. снег  10/10 600 м 
[Ns]
-9.9 -10.9 92 -13  1005.1  -2.5  747  313  -10.1    равномерный
сухой снег
100% 
00 22.11.17 280 (З) 4000 м  слаб. снег  10/10 600 м 
[Ns]
-8.6 -9.7 92 -8  1006.6  1.5  748  312           
03 22.11.17 310 (СЗ) 20000 м  {снег}  10/0 средняя 
[Ac As]
-7.3 -12.2 68 -10  1007.9  1.3  749  311           
06 22.11.17 310 (СЗ) 20000 м  {снег}  10/0 средняя, верхняя 
[Ac As|Ci fib]
-6.7 -12 66 -9  1009.1  1.2  750  311           
09 22.11.17 310 (СЗ) 20000 м    10/0 средняя, верхняя 
[Ac As|Cs]
-9.1 -13.3 72 -9  1011  1.8  751  314    -6.4     
12 22.11.17 310 (СЗ) 20000 м    10/0 средняя, верхняя 
[Ac trans|Ci fib]
-11.2 -15.1 73 -14  1011.8  1.8  752  317           
15 22.11.17 330 (СЗ) 20000 м    8/0 средняя, верхняя 
[Ac trans|Ci fib]
-12.6 -16.7 71 -16  1012.1  0.3  752  319           
18 22.11.17 310 (СЗ) 20000 м    8/0 средняя, верхняя 
[Ac trans|Ci fib]
-13.3 -17.7 69 -17  1012.2  0.3  752  320           
21 22.11.17 320 (СЗ) 20000 м    8/0 верхняя 
[Ci fib]
-14 -18.4 69 -18  1011.5  -0.7  752  321  -14.1         
03 23.11.17 310 (СЗ) 20000 м    10/3 600 м средняя, верхняя 
[Sc|Ac As|Ci fib]
-11.1 -19.2 51 -16  1011.5  -0.3  752  317           
06 23.11.17 320 (СЗ) 20000 м    10/6 600 м средняя, верхняя 
[Sc|Ac As|Ci]
-10.2 -17.6 55 -14  1012.1  0.6  752  316           
09 23.11.17 320 (СЗ) 20000 м    10/8 600 м средняя, верхняя 
[Sc|Ac As|Ci]
-11.8 -18.3 58 -15  1014.5  2.3  754  319    -9.5       
12 23.11.17 310 (СЗ) 20000 м    10/3 600 м средняя 
[Sc|Ac As]
-13.3 -17.4 71 -17  1015  0.4  754  321           
15 23.11.17 330 (СЗ) 20000 м    10/5 600 м средняя 
[Sc|Ac As]
-15.6 -19.5 72 -19  1014.9  0.1  754  324           
18 23.11.17 250 (З) 20000 м    10/3 600 м средняя, верхняя 
[Sc|Ac As|Ci fib]
-18.5 -23.3 66 -19  1015.2  -0.1  754  328           
Время (UTC), дата Ветер
(°,м/с) 
Видим.   Явления Облачность Т
(°С)
Тd
(°С)
f(%) Тe
(°С)
Pmin
(гПа)
dP
(гПа)
Po
(мм)
O2
(г/м3)
Тmin Tmax R s Состояние
почвы

Для получения пояснительной информации подведите курсор к названию столбца.

ПОГОДА Екатерино-Никольское - архив

Всё, что Вы хотите узнать о погоде Екатерино-Никольское - удобно и подробно!

Выберите нужную дату (начиная с 1 января 2015* года) и нажмите кнопку "Найти".
Будут отображены архивные сводки погоды по пункту Екатерино-Никольское, начиная с указанной даты.


Отображать данные в формате CSV (для использования в таблицах Excel)


Внимание! Наш архив погоды предназначен исключительно для личного некоммерческого использования в познавательных целях. Если Вам необходимы официальные справки о состоянии погоды (для производственных, юридических, коммерческих и т.п. целей), обращайтесь в органы Росгидромета.

*Примечание: данная дата относится к архиву по метеостанциям СССР (Россия, СНГ, Балтия).
Архив по метеостанциям Зарубежной Европы и Азии (кроме Китая) хранится 10 дней, по другим регионам земного шара (Китай, Африка, Америка, Австралия, Океания) - 1 день.

Екатерино-Никольское - район местоположения метеостанции


Название, широта, долгота, высота метеостанции:
Екатерино-Никольское 47.7°ш. 131°д. 73 м над ур. моря [Российская Федерация]

Дополнительная информация

В oтличие oт бoльшинства пoгoдных сайтoв мы публикуем пoдрoбную метеoинфoрмацию в детальнoм прoфессиoнальнoм фoрмате.

Характеристики температуры и влажнoсти вoздуха измеряются на высoте 2 м в тени вдали oт зданий и деревьев.
Скoрoсть ветра измеряется на высoте 10 м (на урoвне рoста челoвека скoрoсть ветра ниже в 1.5-2 раза). Если метеoстанция нахoдится в гoрoде или в лесу, тo скoрoсть ветра занижена на 2-4 м/с пo сравнению с oткрытым местoм. Скoрoсть ветра над акватoриями крупных рек и oзёр, а также на вершинах хoлмoв на 2-5 м/с выше, чем в oбычных услoвиях.
Атмoсфернoе давление в разных тoчках местнoсти мoжет значительнo oтличаться oт давления на метеoстанции, в зависимoсти oт услoвий рельефа (при пoдъёме на 10 м давление пoнижается примернo на 1 мм рт.ст.).